This is the latest recevied weather packets stored in our database for station/object N4PWG. If no packets are shown the sender has not sent any weather packets the latest 10 day(s).
| Time | Temp. | Humidity | Pressure | Rain* | Wind** | Luminosity | Snow |
|---|---|---|---|---|---|---|---|
| 1777406808 | 26.11° C | 81% | 1029.3 hPa | 0 mm | - | 81 W/m² | - |
| 1777406503 | 26.11° C | 80% | 1028.8 hPa | 0 mm | - | 102 W/m² | - |
| 1777406198 | 26.11° C | 80% | 1028.8 hPa | 0 mm | - | 124 W/m² | - |
| 1777405897 | 26.11° C | 79% | 1029.3 hPa | 0 mm | - | 89 W/m² | - |
| 1777405594 | 26.11° C | 80% | 1029.9 hPa | 0 mm | - | 63 W/m² | - |
| 1777405292 | 26.67° C | 78% | 1030 hPa | 0 mm | - | 76 W/m² | - |
| 1777404986 | 27.22° C | 77% | 1030.3 hPa | 0 mm | - | 135 W/m² | - |
| 1777404686 | 27.22° C | 77% | 1030 hPa | 0 mm | - | 189 W/m² | - |
| 1777404382 | 27.22° C | 76% | 1030 hPa | 0 mm | - | 219 W/m² | - |
| 1777404079 | 27.22° C | 76% | 1030.2 hPa | 0 mm | - | 230 W/m² | - |
| 1777403774 | 27.22° C | 76% | 1030.3 hPa | 0 mm | - | 176 W/m² | - |
| 1777403474 | 27.22° C | 75% | 1030.6 hPa | 0 mm | - | 220 W/m² | - |
| 1777403174 | 27.22° C | 74% | 1030.5 hPa | 0 mm | - | 256 W/m² | - |
| 1777402869 | 27.22° C | 76% | 1030.6 hPa | 0 mm | - | 470 W/m² | - |
| 1777402566 | 27.78° C | 75% | 1030.7 hPa | 0 mm | - | 269 W/m² | - |
| 1777402263 | 27.78° C | 74% | 1030.8 hPa | 0 mm | - | 292 W/m² | - |
| 1777401958 | 27.22° C | 75% | 1031 hPa | 0 mm | - | 301 W/m² | - |
| 1777401657 | 27.22° C | 76% | 1031.5 hPa | 0 mm | - | 294 W/m² | - |
| 1777401355 | 26.67° C | 77% | 1031.5 hPa | 0 mm | - | 252 W/m² | - |
| 1777401050 | 27.22° C | 76% | 1031.7 hPa | 0 mm | - | 329 W/m² | - |
| 1777400746 | 27.78° C | 76% | 1031.6 hPa | 0 mm | - | 339 W/m² | - |
| 1777400444 | 27.22° C | 76% | 1031.7 hPa | 0 mm | - | 313 W/m² | - |
| 1777400144 | 27.22° C | 76% | 1031.8 hPa | 0 mm | - | 299 W/m² | - |
| 1777399841 | 27.22° C | 77% | 1031.4 hPa | 0 mm | - | 325 W/m² | - |
| 1777399538 | 26.67° C | 76% | 1031.5 hPa | 0 mm | - | 328 W/m² | - |
* Rain latest hour (hover to see other rain measurements)
** Current wind speed in m/s (hover to see current wind gust speed)